{"data":{"norad_id":53252,"intl_designator":"2022-086L","name":"STARLINK-4132","alt_names":[],"object_type":"PAYLOAD","status":"ACTIVE","operator":null,"country":"US","launch_date":"2022-07-24","launch_site_code":"AFETR","launch_vehicle":null,"mission":null,"orbit_class":"UNKNOWN","rcs_meters":null,"size_class":null,"mass_kg":null,"dimensions":null,"purposes":["comms"],"wikipedia_slug":null,"has_3d_model":false,"image_url":null,"decayed_at":null,"tle_current":{"epoch":"2026-09-19T23:07:46.857792Z","epoch_age_seconds":121703,"freshness":"FRESH","line1":"1 53252U 22086L   26262.96373678  .00000145  00000+0  16436-4 0  9995","line2":"2 53252  53.1607  27.7075 0001095  80.5540 279.5586 15.31705217230601","mean_motion":15.31705217,"eccentricity":0.0001095,"inclination_deg":53.1607,"raan_deg":27.7075,"arg_perigee_deg":80.554,"mean_anomaly_deg":279.5586,"bstar":1.6436e-5,"rev_number":23060,"period_min":94.012867751432,"perigee_km":469.97449333618,"apogee_km":471.47439399234,"semimajor_km":6848.8614436643,"source":"CELESTRAK","updated_at":"2026-09-20T09:00:40.214376Z"}}}